Location: Unspecified
(44.4377°N, 88.0525°W)
Time: 07:59:17
(UTC-06:00)

CZ-3 Stage 3 - Visible Passes

Search period start: 27 January 2021 00:00
Search period end: 06 February 2021 00:00
Orbit: 403 x 34782 km, 31.0° (Epoch: 27 January)

Date Brightness Start Highest point End Pass type
(mag) Time Alt. Az. Time Alt. Az. Time Alt. Az.
27 Jan 7.3 17:05:50 10° WSW 17:23:00 63° SSE 01:55:55 10° S visible
28 Jan 6.8 13:33:30 10° SSE 20:04:12 10° ESE 20:27:04 10° ESE visible
29 Jan 9.0 00:35:21 10° WNW 01:35:26 21° W 03:37:49 10° W visible
29 Jan 8.4 20:34:36 10° W 21:37:05 59° SW 04:02:55 10° SW visible
30 Jan 7.3 16:54:47 10° WSW 17:11:32 63° SSE 01:43:06 10° S visible
01 Feb 9.0 00:24:08 10° WNW 01:23:12 21° W 03:23:28 10° W visible
01 Feb 8.5 20:23:29 10° W 21:24:15 58° SW 03:48:27 10° SW visible
02 Feb 7.3 16:43:44 10° WSW 17:00:04 63° SSE 01:30:12 10° S visible
04 Feb 9.1 00:12:56 10° WNW 01:10:59 20° W 03:09:01 10° W visible
04 Feb 8.5 20:12:21 10° W 21:11:28 58° SW 03:33:56 10° SW visible
